TGW469 WMKK-WSSS

Flight info

Callsign TGW469
Flight time 0h 40m
Altitude 22000
Route RUSBU1F RUSBU Y511 TOPOR A464 ARAMA DCT TEBUN TEBUN1A
Aircraft A320/M-SDE3FGHIRWY/LB1

Departure

Time 2026-05-04 14:03
Airport Kuala Lumpur International Airport (WMKK)

Arrival

Time 2026-05-04 14:43
Airport Singapore Changi Airport (WSSS)
Time Latitude Longitude Altitude Speed Heading
2026-05-04 13:32 2.74104 101.68973 41 ft 0 kts 146°
2026-05-04 13:44 2.74115 101.68966 40 ft 4 kts 147°
2026-05-04 13:44 2.74138 101.68955 38 ft 4 kts 179°
2026-05-04 13:44 2.74153 101.68962 42 ft 4 kts 236°
2026-05-04 13:45 2.74159 101.68970 39 ft 0 kts 236°
2026-05-04 13:52 2.74131 101.68862 42 ft 12 kts 251°
2026-05-04 13:52 2.74081 101.68783 41 ft 15 kts 236°
2026-05-04 13:52 2.74018 101.68691 42 ft 17 kts 235°
2026-05-04 13:53 2.73945 101.68585 42 ft 20 kts 236°
2026-05-04 13:53 2.73882 101.68490 42 ft 18 kts 236°
2026-05-04 13:53 2.73810 101.68381 42 ft 18 kts 236°
2026-05-04 13:54 2.73701 101.68220 41 ft 15 kts 235°
2026-05-04 13:54 2.73690 101.68138 40 ft 11 kts 261°
2026-05-04 13:54 2.73533 101.68149 38 ft 16 kts 146°
2026-05-04 13:55 2.73438 101.68214 37 ft 15 kts 146°
2026-05-04 13:55 2.73279 101.68322 38 ft 16 kts 146°
2026-05-04 13:55 2.73178 101.68389 38 ft 19 kts 146°
2026-05-04 13:56 2.73070 101.68462 39 ft 17 kts 146°
2026-05-04 13:56 2.72963 101.68534 39 ft 20 kts 146°
2026-05-04 13:56 2.72791 101.68648 38 ft 16 kts 146°
2026-05-04 13:57 2.72694 101.68714 38 ft 18 kts 145°
2026-05-04 13:57 2.72602 101.68776 38 ft 15 kts 146°
2026-05-04 13:58 2.72314 101.68973 38 ft 19 kts 146°
2026-05-04 13:58 2.72099 101.69116 39 ft 20 kts 146°
2026-05-04 13:58 2.71995 101.69186 39 ft 14 kts 146°
2026-05-04 13:59 2.71910 101.69244 39 ft 15 kts 146°
2026-05-04 13:59 2.71818 101.69305 39 ft 14 kts 146°
2026-05-04 13:59 2.71753 101.69285 38 ft 0 kts 244°
2026-05-04 14:00 2.71749 101.69271 39 ft 3 kts 257°
2026-05-04 14:00 2.71752 101.69245 39 ft 5 kts 289°
2026-05-04 14:01 2.71770 101.69209 39 ft 7 kts 297°
2026-05-04 14:01 2.71796 101.69156 39 ft 9 kts 292°
2026-05-04 14:01 2.71841 101.69081 39 ft 0 kts 326°
2026-05-04 14:02 2.71945 101.69011 39 ft 51 kts 326°
2026-05-04 14:02 2.72439 101.68678 36 ft 116 kts 326°
2026-05-04 14:02 2.73252 101.68131 39 ft 164 kts 326°
2026-05-04 14:02 2.74234 101.67475 506 ft 172 kts 327°
2026-05-04 14:03 2.75239 101.66803 1097 ft 176 kts 326°
2026-05-04 14:03 2.76228 101.66008 1450 ft 196 kts 308°
2026-05-04 14:03 2.76782 101.64660 1445 ft 237 kts 274°
2026-05-04 14:03 2.76719 101.62894 1681 ft 271 kts 266°
2026-05-04 14:04 2.76017 101.59278 3661 ft 270 kts 241°
2026-05-04 14:04 2.74786 101.57850 4554 ft 274 kts 218°
2026-05-04 14:04 2.73084 101.56971 5400 ft 280 kts 195°
2026-05-04 14:05 2.69193 101.57264 7076 ft 286 kts 168°
2026-05-04 14:05 2.67208 101.57524 7877 ft 290 kts 178°
2026-05-04 14:05 2.65207 101.57560 8670 ft 293 kts 179°
2026-05-04 14:06 2.63165 101.57685 9455 ft 296 kts 169°
2026-05-04 14:06 2.61153 101.58267 10174 ft 301 kts 159°
2026-05-04 14:06 2.59144 101.59012 10405 ft 324 kts 159°
2026-05-04 14:06 2.57034 101.59980 10621 ft 342 kts 144°
2026-05-04 14:07 2.55336 101.61657 11116 ft 348 kts 123°
2026-05-04 14:07 2.54068 101.63733 11772 ft 351 kts 120°
2026-05-04 14:07 2.52820 101.65839 12418 ft 354 kts 120°
2026-05-04 14:07 2.51564 101.67964 13093 ft 356 kts 120°
2026-05-04 14:08 2.50301 101.70101 13726 ft 358 kts 120°
2026-05-04 14:08 2.49027 101.72257 14285 ft 361 kts 120°
2026-05-04 14:08 2.47764 101.74396 14829 ft 364 kts 120°
2026-05-04 14:08 2.46472 101.76585 15388 ft 366 kts 120°
2026-05-04 14:09 2.43863 101.81002 16488 ft 372 kts 120°
2026-05-04 14:09 2.42542 101.83235 17035 ft 374 kts 120°
2026-05-04 14:10 2.39871 101.87745 18105 ft 380 kts 120°
2026-05-04 14:10 2.38519 101.90025 18580 ft 382 kts 120°
2026-05-04 14:10 2.37161 101.92318 19035 ft 385 kts 120°
2026-05-04 14:10 2.35792 101.94630 19487 ft 388 kts 120°
2026-05-04 14:11 2.34431 101.96925 19933 ft 390 kts 120°
2026-05-04 14:11 2.31629 102.01651 20815 ft 396 kts 120°
2026-05-04 14:11 2.30242 102.03992 21257 ft 398 kts 120°
2026-05-04 14:12 2.28827 102.06385 21687 ft 401 kts 120°
2026-05-04 14:12 2.27403 102.08792 22103 ft 404 kts 120°
2026-05-04 14:12 2.24524 102.13658 22834 ft 409 kts 120°
2026-05-04 14:13 2.23067 102.16115 22910 ft 413 kts 120°
2026-05-04 14:13 2.21599 102.18587 22908 ft 414 kts 120°
2026-05-04 14:13 2.20129 102.21063 22909 ft 415 kts 120°
2026-05-04 14:13 2.18656 102.23547 22926 ft 415 kts 120°
2026-05-04 14:14 2.17188 102.26026 22925 ft 415 kts 120°
2026-05-04 14:14 2.14250 102.30985 22926 ft 415 kts 120°
2026-05-04 14:14 2.12799 102.33433 22911 ft 415 kts 120°
2026-05-04 14:15 2.09862 102.38394 22927 ft 415 kts 120°
2026-05-04 14:15 2.06924 102.43364 22921 ft 415 kts 120°
2026-05-04 14:16 2.03984 102.48331 22922 ft 416 kts 120°
2026-05-04 14:16 2.02501 102.50815 22922 ft 416 kts 121°
2026-05-04 14:17 1.99059 102.55469 22922 ft 418 kts 126°
2026-05-04 14:17 1.97281 102.57827 22911 ft 425 kts 126°
2026-05-04 14:17 1.93791 102.62451 22922 ft 417 kts 126°
2026-05-04 14:18 1.92054 102.64755 22914 ft 416 kts 126°
2026-05-04 14:18 1.88571 102.69381 22908 ft 416 kts 126°
2026-05-04 14:19 1.85095 102.73999 22914 ft 415 kts 126°
2026-05-04 14:19 1.83356 102.76304 22915 ft 415 kts 126°
2026-05-04 14:19 1.81623 102.78603 22910 ft 415 kts 126°
2026-05-04 14:19 1.79884 102.80911 22911 ft 415 kts 126°
2026-05-04 14:20 1.78149 102.83215 22902 ft 415 kts 126°
2026-05-04 14:20 1.76437 102.85489 22901 ft 415 kts 126°
2026-05-04 14:20 1.74702 102.87792 22894 ft 415 kts 126°
2026-05-04 14:21 1.71768 102.92727 22890 ft 413 kts 117°
2026-05-04 14:21 1.70420 102.95267 22891 ft 413 kts 117°
2026-05-04 14:21 1.69069 102.97803 22890 ft 413 kts 117°
2026-05-04 14:21 1.67715 103.00340 22890 ft 413 kts 117°
2026-05-04 14:22 1.66362 103.02873 22905 ft 413 kts 117°
2026-05-04 14:22 1.65013 103.05407 22890 ft 413 kts 117°
2026-05-04 14:22 1.63664 103.07904 22897 ft 413 kts 120°
2026-05-04 14:22 1.61964 103.10217 22885 ft 415 kts 131°
2026-05-04 14:23 1.57343 103.13638 22798 ft 412 kts 153°
2026-05-04 14:23 1.54723 103.14712 22544 ft 403 kts 156°
2026-05-04 14:23 1.52135 103.15734 22293 ft 398 kts 156°
2026-05-04 14:24 1.49563 103.16751 22049 ft 396 kts 156°
2026-05-04 14:24 1.47013 103.17763 21790 ft 394 kts 156°
2026-05-04 14:24 1.44475 103.18772 21545 ft 392 kts 156°
2026-05-04 14:24 1.41942 103.19779 21300 ft 391 kts 156°
2026-05-04 14:25 1.39427 103.20779 21058 ft 389 kts 156°
2026-05-04 14:25 1.34452 103.22759 20523 ft 384 kts 156°
2026-05-04 14:25 1.31976 103.23747 20052 ft 381 kts 156°
2026-05-04 14:26 1.29560 103.24708 19897 ft 364 kts 156°
2026-05-04 14:26 1.27275 103.25612 19627 ft 345 kts 156°
2026-05-04 14:26 1.25061 103.26509 19329 ft 340 kts 152°
2026-05-04 14:26 1.23011 103.27638 19014 ft 335 kts 147°
2026-05-04 14:27 1.21681 103.28412 18789 ft 333 kts 147°
2026-05-04 14:27 1.19012 103.29961 18334 ft 331 kts 147°
2026-05-04 14:27 1.17050 103.31097 17976 ft 329 kts 148°
2026-05-04 14:27 1.15071 103.32240 17593 ft 327 kts 148°
2026-05-04 14:28 1.13105 103.33375 17203 ft 326 kts 148°
2026-05-04 14:28 1.11152 103.34505 16836 ft 324 kts 148°
2026-05-04 14:28 1.09205 103.35632 16479 ft 322 kts 148°
2026-05-04 14:28 1.07272 103.36752 16132 ft 321 kts 148°
2026-05-04 14:29 1.03433 103.38973 15455 ft 317 kts 148°
2026-05-04 14:29 1.00358 103.40755 15115 ft 292 kts 147°
2026-05-04 14:30 0.98849 103.41985 14862 ft 278 kts 129°
2026-05-04 14:30 0.97821 103.43579 14446 ft 272 kts 112°
2026-05-04 14:30 0.97196 103.47272 13831 ft 271 kts 94°
2026-05-04 14:31 0.97047 103.49146 13546 ft 270 kts 95°
2026-05-04 14:31 0.96748 103.52857 12958 ft 269 kts 95°
2026-05-04 14:32 0.96460 103.56560 12060 ft 266 kts 91°
2026-05-04 14:32 0.96616 103.58394 11570 ft 265 kts 82°
2026-05-04 14:32 0.96957 103.60797 10940 ft 263 kts 82°
2026-05-04 14:32 0.97210 103.62608 10475 ft 262 kts 82°
2026-05-04 14:33 0.97380 103.63826 10166 ft 262 kts 82°
2026-05-04 14:33 0.97628 103.65604 9719 ft 262 kts 82°
2026-05-04 14:33 0.97876 103.67400 9218 ft 261 kts 82°
2026-05-04 14:33 0.98125 103.69192 8732 ft 260 kts 82°
2026-05-04 14:34 0.98422 103.70962 8255 ft 257 kts 73°
2026-05-04 14:34 0.99137 103.72581 7797 ft 254 kts 57°
2026-05-04 14:34 1.00098 103.74060 7311 ft 253 kts 56°
2026-05-04 14:34 1.01097 103.75518 6627 ft 260 kts 52°
2026-05-04 14:35 1.02243 103.76957 5825 ft 272 kts 50°
2026-05-04 14:35 1.03398 103.78378 5672 ft 255 kts 50°
2026-05-04 14:35 1.04490 103.79720 5320 ft 243 kts 50°
2026-05-04 14:35 1.05511 103.80977 4977 ft 225 kts 50°
2026-05-04 14:36 1.06483 103.82180 4417 ft 221 kts 50°
2026-05-04 14:36 1.07440 103.83365 3814 ft 218 kts 50°
2026-05-04 14:36 1.08395 103.84541 3304 ft 216 kts 50°
2026-05-04 14:36 1.09312 103.85665 3014 ft 204 kts 50°
2026-05-04 14:37 1.10216 103.86765 2991 ft 206 kts 50°
2026-05-04 14:37 1.11231 103.87733 2990 ft 205 kts 29°
2026-05-04 14:37 1.12530 103.88314 2994 ft 205 kts 22°
2026-05-04 14:37 1.13847 103.88861 2993 ft 205 kts 22°
2026-05-04 14:38 1.15155 103.89411 2995 ft 202 kts 22°
2026-05-04 14:38 1.16427 103.89947 3004 ft 196 kts 22°
2026-05-04 14:38 1.17681 103.90476 3000 ft 195 kts 22°
2026-05-04 14:38 1.18925 103.91001 2999 ft 194 kts 22°
2026-05-04 14:39 1.20169 103.91526 2931 ft 194 kts 22°
2026-05-04 14:39 1.21413 103.92052 2738 ft 193 kts 22°
2026-05-04 14:39 1.22633 103.92567 2510 ft 192 kts 22°
2026-05-04 14:40 1.25066 103.93594 2021 ft 181 kts 22°
2026-05-04 14:40 1.26179 103.94064 1794 ft 167 kts 23°
2026-05-04 14:40 1.27227 103.94506 1611 ft 161 kts 23°
2026-05-04 14:40 1.28249 103.94937 1380 ft 159 kts 23°
2026-05-04 14:41 1.29268 103.95367 1161 ft 158 kts 23°
2026-05-04 14:41 1.30264 103.95784 1039 ft 151 kts 23°
2026-05-04 14:41 1.32105 103.96584 589 ft 142 kts 22°
2026-05-04 14:42 1.33881 103.97314 283 ft 136 kts 22°
2026-05-04 14:42 1.34744 103.97680 117 ft 136 kts 22°
2026-05-04 14:42 1.35565 103.98027 32 ft 117 kts 22°
2026-05-04 14:43 1.36148 103.98273 31 ft 67 kts 23°
2026-05-04 14:43 1.36518 103.98427 29 ft 47 kts 22°
2026-05-04 14:43 1.36708 103.98569 31 ft 25 kts 50°
2026-05-04 14:43 1.36792 103.98679 30 ft 14 kts 53°
2026-05-04 14:44 1.36842 103.98769 30 ft 16 kts 83°
2026-05-04 14:44 1.36809 103.98871 30 ft 15 kts 113°
2026-05-04 14:44 1.36764 103.98975 30 ft 18 kts 113°
2026-05-04 14:44 1.36711 103.99098 30 ft 19 kts 113°
2026-05-04 14:45 1.36657 103.99224 30 ft 21 kts 113°
2026-05-04 14:45 1.36612 103.99312 30 ft 12 kts 137°
2026-05-04 14:45 1.36547 103.99294 30 ft 8 kts 231°
2026-05-04 14:45 1.36515 103.99252 30 ft 8 kts 233°
2026-05-04 14:46 1.36477 103.99200 30 ft 11 kts 240°
2026-05-04 14:46 1.36506 103.99141 30 ft 10 kts 345°
2026-05-04 14:46 1.36549 103.99104 30 ft 9 kts 259°
2026-05-04 14:46 1.36545 103.99088 30 ft 5 kts 262°
2026-05-04 14:47 1.36543 103.99062 30 ft 3 kts 264°
2026-05-04 14:47 1.36542 103.99055 30 ft 0 kts 263°
2026-05-04 14:47 1.36541 103.99052 30 ft 0 kts 263°